Location: Dallas
(32.7833°N, 96.8000°W)
Time: 00:32:06
(UTC-06:00)

Envisat - Pass Details

Date: 01 February 2021
Orbit: 764 x 766 km, 98.1° (Epoch: 06 March)

Event Time Altitude Azimuth Distance (km) Brightness Sun altitude
Rises 05:57:41 0° 14° (NNE) 3,234 6.3 -18.0°
Reaches altitude 10° 06:00:01 10° 17° (NNE) 2,304 5.6 -17.5°
Maximum altitude 06:05:05 72° 101° (ESE) 804 3.2 -16.4°
Drops below altitude 10° 06:10:07 10° 186° (S) 2,290 5.5 -15.4°
Sets 06:12:25 0° 188° (S) 3,212 6.3 -14.9°
